RH
78 76 72 71 73 72 70 67 69 72 73 73 75 74 72 70 70 72 75 77 76 79 80 80 78 79 82 81 82 87 89 81
77 72 70 73 74 72 70 72 71 68 70 71 70 74 70 72 72 72 74 77 76 78 80 79 77 77 78 77 83 82 88 89
73 72 71 72 73 72 69 65 66 61 60 57 65 65 70 74 75 72 72 74 75 73 78 79 75 76 78 77 79 89 90 93
72 70 72 72 74 76 69 64 61 60 61 62 67 66 66 70 68 71 71 72 75 77 78 81 80 82 83 85 84 84 90 92
69 70 74 73 75 79 71 62 61 64 59 62 59 60 60 68 71 71 72 72 75 79 80 82 83 86 84 84 81 88 88 90
68 69 69 70 79 85 76 67 67 65 59 61 59 58 65 71 74 74 73 75 75 75 78 81 84 86 84 84 85 87 89 93
63 66 69 76 89 88 82 69 67 64 64 62 61 65 64 73 77 76 80 81 80 76 74 80 84 86 86 88 89 87 92 95
69 75 77 88 90 91 81 66 68 70 69 65 61 59 59 67 71 76 80 83 82 79 77 79 82 86 88 88 89 88 90 94
73 76 82 86 84 82 80 70 67 66 67 68 65 62 65 67 71 75 82 82 81 77 79 80 83 84 86 88 93 94 93 93
82 82 83 80 87 86 76 65 59 63 66 66 66 65 66 70 74 76 78 82 73 81 83 86 86 88 88 89 94 95 95 94
85 83 82 83 84 70 65 59 62 63 64 62 65 67 69 70 72 77 78 81 82 84 88 87 89 89 88 88 90 90 90 92
91 86 83 89 80 70 70 67 84 73 64 66 73 73 72 71 71 73 75 82 82 83 86 86 87 87 86 87 89 87 88 90
95 88 86 87 72 67 65 68 71 90 77 73 77 84 79 73 77 76 82 85 85 86 86 86 87 89 91 88 89 91 90 91
92 96 92 85 73 76 67 71 68 72 73 80 82 84 87 87 88 88 88 89 92 90 88 89 91 94 93 93 87 86 91 93
88 88 90 86 80 78 76 78 71 68 74 75 86 83 77 84 90 87 89 89 92 95 95 95 94 94 91 86 87 90 90 91
68 69 80 87 84 78 74 70 70 67 72 73 76 76 76 80 82 85 86 85 87 94 94 95 94 90 76 74 71 87 87 90
57 51 59 79 77 78 72 70 67 66 69 73 76 78 76 79 79 81 83 85 82 84 84 86 89 65 66 67 68 79 80 84
78 65 47 52 76 75 72 71 67 66 68 76 76 75 75 80 82 88 91 88 88 90 88 83 83 73 66 66 70 78 81 81
83 82 66 59 70 74 72 67 68 69 74 78 77 79 85 87 90 95 94 90 88 84 85 83 82 76 70 67 70 83 77 71
Wind_Speed
16 16 13 12 11 11 12 11 13 13 9 9 6 5 4 4 4 4 6 5 6 5 4 5 4 4 4 4 5 5 4 7
8 12 13 13 13 14 15 15 14 13 11 10 6 6 4 3 4 5 6 5 6 6 4 4 4 4 4 4 4 6 4 2
12 15 16 18 17 16 15 16 14 12 10 7 5 7 3 4 3 4 5 6 5 6 5 4 5 4 5 4 3 3 3 3
17 19 19 17 19 18 16 16 15 10 11 10 7 7 6 4 3 3 3 6 5 6 6 5 5 4 4 3 2 4 4 4
18 20 20 21 19 15 15 16 15 12 14 12 15 7 7 3 4 3 4 6 5 6 5 6 5 4 5 3 2 2 4 4
22 24 24 20 17 14 13 15 13 15 14 14 10 11 5 6 6 7 6 5 6 6 6 6 6 4 4 5 5 5 3 3
19 16 14 14 12 11 11 12 12 13 12 13 12 13 11 9 7 6 4 4 4 5 6 5 5 5 5 4 5 7 5 5
14 16 16 14 16 11 10 12 9 8 11 12 13 14 13 13 11 7 8 4 3 5 5 5 4 5 5 5 6 5 5 4
17 18 18 19 16 13 13 13 11 11 12 11 10 12 8 8 8 8 6 4 5 5 5 5 6 6 6 5 4 4 5 5
10 11 14 18 17 16 15 15 12 11 11 11 10 10 10 10 11 7 5 6 5 6 6 7 6 6 6 6 4 5 5 4
11 13 14 13 16 16 13 12 15 12 11 11 10 10 9 10 11 10 8 6 6 7 7 7 7 7 7 7 5 4 7 4
7 9 9 9 9 13 15 12 10 10 11 9 11 9 9 10 11 10 10 7 8 8 8 8 7 7 6 7 6 5 8 6
3 6 8 7 8 9 14 12 12 10 10 10 10 8 9 10 11 10 9 9 8 9 8 8 7 7 6 7 7 5 7 7
7 5 9 13 12 10 11 10 10 10 11 12 11 10 9 9 10 10 9 9 7 7 7 8 8 6 7 6 7 7 7 6
7 10 10 11 13 13 12 12 11 12 11 12 13 11 11 12 11 10 10 8 9 6 5 6 6 7 8 8 9 8 7 6
9 9 8 7 10 12 12 11 11 12 12 11 12 11 12 13 12 12 11 9 8 8 9 6 6 7 7 11 11 9 9 7
13 16 11 14 16 15 13 14 14 13 13 12 12 13 13 13 12 12 13 10 9 8 10 9 7 5 19 18 13 9 7 6
7 14 19 15 16 18 20 18 15 15 15 14 14 15 15 14 13 11 9 11 10 8 9 9 8 7 20 18 16 6 6 5
6 7 5 6 12 14 15 17 18 16 15 15 14 15 14 13 13 12 12 10 11 10 8 8 8 8 19 17 16 7 6 5
Wind_Direction
193 172 170 167 161 160 148 145 138 132 124 123 113 103 93 96 96 89 98 95 94 98 85 86 90 93 82 74 83 58 80 102
167 160 155 156 161 160 159 152 153 145 145 141 130 124 118 89 78 90 96 105 104 107 101 95 81 83 106 105 82 97 72 91
171 170 167 175 169 166 162 160 160 156 150 145 127 139 118 113 113 97 99 102 105 108 109 99 88 92 76 78 92 116 87 13
176 180 179 172 175 171 169 161 161 157 137 117 106 97 104 110 105 97 95 99 100 108 104 107 98 90 92 86 102 129 131 32
180 181 180 181 179 168 168 166 162 152 150 141 152 148 145 143 129 122 106 104 105 108 108 103 99 96 96 92 86 129 124 138
188 187 185 179 164 170 173 172 163 159 157 154 152 143 124 127 122 120 115 103 107 103 104 105 104 101 98 104 85 79 82 121
195 182 163 162 157 164 172 176 166 165 156 147 150 142 143 138 141 136 132 118 107 107 109 112 116 114 115 105 87 80 81 85
177 167 166 157 160 162 167 170 161 166 146 148 157 151 156 153 153 150 145 134 125 137 123 125 120 121 111 103 97 95 94 99
175 167 161 154 162 165 163 161 170 164 155 155 156 148 157 153 150 148 143 141 140 136 121 120 118 113 102 95 97 95 88 85
146 154 162 162 160 179 172 157 168 164 163 153 152 147 163 156 141 136 139 126 129 127 124 112 108 106 105 98 96 97 89 86
158 167 176 186 165 167 160 163 163 165 154 154 152 155 157 149 139 137 139 136 119 124 117 114 110 107 108 105 95 92 100 82
187 182 170 178 197 172 155 160 146 155 153 147 136 145 148 148 139 138 140 128 131 124 125 119 120 117 113 110 103 98 97 91
165 166 165 160 171 170 159 159 159 165 154 138 128 125 143 144 133 134 131 131 127 130 126 123 124 121 122 122 117 106 108 104
310 242 185 178 169 173 175 165 165 158 148 134 132 143 141 125 123 123 119 125 121 121 126 131 130 128 119 101 111 107 100 97
214 269 206 196 176 175 191 167 164 158 151 147 140 151 140 129 124 124 121 123 123 111 105 117 125 123 118 116 107 104 103 96
220 225 217 198 191 179 180 170 166 155 151 145 151 145 136 129 137 134 129 135 137 134 127 115 119 128 129 124 121 116 115 111
221 228 192 185 188 184 180 171 164 154 150 151 146 141 139 141 144 143 137 133 139 148 143 136 133 148 144 139 132 131 130 129
248 254 228 195 193 185 185 173 158 159 156 154 154 151 148 145 138 136 134 139 139 149 141 141 141 155 146 150 144 130 132 130
280 322 305 204 188 177 161 162 163 162 155 154 157 150 146 145 144 152 156 154 155 148 144 149 148 161 153 158 151 130 123 117